Regional Weather Roundup
Issued by NWS

Home | Current Version | Previous Version | Graphics & Text | Print | Product List | Glossary On
Versions: 1 2 3 4 5 6 7 8 9 10 11 12 13 14 15 16 17 18 19 20 21 22 23 24 25 26 27 28 29 30 31 32 33 34 35 36 37 38 39 40 41 42 43 44 45 46 47 48 49 50
000
ASUS43 KMKX 282300
RWRWI

WISCONSIN REGIONAL WEATHER ROUNDUP
NATIONAL WEATHER SERVICE MILWAUKEE/SULLIVAN WI
500 PM CST SUN DEC 28 2014

NOTE: "FAIR" INDICATES FEW OR NO CLOUDS BELOW 12,000 FEET WITH NO
SIGNIFICANT WEATHER AND/OR OBSTRUCTIONS TO VISIBILITY.

WIZ001-002-006>008-014>016-023>028-290000-
NORTHWEST WISCONSIN

CITY           SKY/WX    TMP DP  RH WIND       PRES   REMARKS
SUPERIOR ARPT  CLEAR     11  -1  59 NW6       30.28R WCI   2
ASHLAND        CLEAR      8  -1  66 NW6       30.25R WCI  -2
HAYWARD        CLEAR      9   1  70 CALM      30.21R
SIREN          CLEAR     15   0  51 N5        30.23R WCI   8
CUMBERLAND     CLEAR     16   3  57 N6        30.19R WCI   7
RICE LAKE      CLEAR     16   7  67 N5        30.22R WCI   9
CHETEK         CLEAR     14   8  79 CALM      30.20R
LADYSMITH      CLEAR     15   6  68 N5        30.20R WCI   7
EAU CLAIRE     PTCLDY    13  10  88 CALM      30.21R
MENOMONIE      MOCLDY    17  13  84 CALM      30.22R
NEW RICHMOND   CLEAR     16   7  66 N6        30.23R WCI   8
OSCEOLA        CLEAR     18   7  61 NW6       30.26R WCI  10
$$

WIZ003>005-009-010-017-018-290000-
NORTH CENTRAL WISCONSIN

CITY           SKY/WX    TMP DP  RH WIND       PRES   REMARKS
MANITOWISH WTR CLOUDY    10   5  80 NW5       30.14R WCI   2
ARBOR VITAE    PTCLDY    11   6  81 CALM      30.14R
WOODRUFF       PTCLDY    11   6  81 CALM      30.14R
RHINELANDER    CLEAR     12   7  80 N3        30.13R
EAGLE RIVER    MOCLDY    12   5  73 N5        30.13R WCI   4
LAND O LAKES   PTCLDY    10   6  81 NW3       30.13R
PHILLIPS       CLEAR     10   5  80 NW3       30.15R
TOMAHAWK       FLURRIES  16  12  83 CALM      30.15R
MEDFORD        CLEAR     13  10  87 NW5       30.14S WCI   6
MERRILL        PTCLDY    17  11  76 NW3       30.15R
$$

WIZ029-030-035-036-043>047-290000-
CENTRAL WISCONSIN

CITY           SKY/WX    TMP DP  RH WIND       PRES   REMARKS
WAUSAU         CLOUDY    17  13  84 W6        30.15R WCI   9
MOSINEE        NOT AVBL
MARSHFIELD     CLOUDY    19  13  77 NW5       30.17R WCI  12
STEVENS POINT  FLURRIES  19  15  84 NW3       30.17R
WAUPACA        CLOUDY    27  18  69 W7        30.18R WCI  20
WAUTOMA        NOT AVBL
WISC RAPIDS    CLOUDY    22  15  75 NW9       30.19R WCI  12
CAMP DOUGLAS   NOT AVBL
$$

WIZ011>013-019>022-031-037>040-048>050-290000-
NORTHEAST WISCONSIN

CITY           SKY/WX    TMP DP  RH WIND       PRES   REMARKS
ANTIGO         FLURRIES  18  14  84 NW7       30.13R WCI   9
SHAWANO        CLOUDY    25  18  74 CALM      30.18R
OCONTO         MOCLDY    23  15  73 W5        30.17R WCI  17
STURGEON BAY   CLOUDY    25  12  58 NW12      30.18R WCI  14
GREEN BAY      CLOUDY    26  18  71 NW9       30.18R WCI  17
MANITOWOC      NOT AVBL
APPLETON       CLOUDY    27  18  69 NW7       30.16R WCI  19
CLINTONVILLE   CLOUDY    25  18  74 NW6       30.18R WCI  18
OSHKOSH        CLOUDY    29  19  66 N5        30.16R WCI  24
$$

WIZ032>034-041-042-053>061-290000-
SOUTHWEST WISCONSIN

CITY           SKY/WX    TMP DP  RH WIND       PRES   REMARKS
LA CROSSE      CLOUDY    25  18  74 N7        30.21S WCI  17
SPARTA         CLOUDY    26  19  75 NW5       30.20R WCI  20
VIROQUA        CLEAR     25  20  82 NW5       30.15R WCI  19
BOSCOBEL       CLEAR     29  18  63 CALM      30.19R
PRAIRIE DU CHI CLEAR     30  20  67 W3        30.18S
PLATTEVILLE    CLEAR     28  16  60 CALM      30.17R
$$

WIZ056-057-062-063-064-067-068-290000-
SOUTH CENTRAL WISCONSIN

CITY           SKY/WX    TMP DP  RH WIND       PRES   REMARKS
REEDSBURG      CLOUDY    28  20  71 W6        30.16R WCI  22
BARABOO/DELLS  CLOUDY    28  19  69 CALM      30.15R
LONE ROCK      NOT AVBL
MINERAL POINT  CLEAR     30  21  69 W3        30.15R
MADISON        PTCLDY    28  18  66 N3        30.16R
MIDDLETON      CLEAR     31  21  67 CALM      30.16R
WATERTOWN      CLEAR     28  20  70 W3        30.15S
MONROE         CLEAR     30  19  64 W6        30.15R WCI  24
JANESVILLE     PTCLDY    30  19  64 VRB5      30.16R WCI  25
$$

WIZ051-052-058>065-066-070>072-290000-
SOUTHEAST WISCONSIN

CITY           SKY/WX    TMP DP  RH WIND       PRES   REMARKS
MILWAUKEE      PTCLDY    31  16  54 NW5       30.17R WCI  26
WAUKESHA       CLEAR     27  18  69 NW13      30.17R WCI  16
MILWAUKEE/TIMM CLEAR     28  18  64 W5        30.18R WCI  23
RACINE         CLEAR     30  18  60 W3        30.18R
BURLINGTON     CLEAR     28  18  66 W3        30.16S
KENOSHA        CLEAR     28  20  71 NW5       30.16S WCI  23
FOND DU LAC    PTCLDY    28  18  66 CALM      30.16R
SHEBOYGAN      CLEAR     26  18  71 N6        30.17R WCI  19
WEST BEND      CLEAR     28  18  64 W3        30.16R
JUNEAU         CLEAR     27  19  69 CALM      30.17R
$$

LSZ147-162-290000-
LAKE SUPERIOR

STATION/POSITION TIME  TEMP    WIND        PRES    WAVE
                       AIR SEA DIR/SP/G            HT/PER
                 (UTC) (F)     (DEG/KT/KT) (MB)    (FT/S)
DEVILS ISLAND    2200   15     290/ 12/ 14 1025.1R
PORT WING        2200   15     290/  7/ 11 1024.4R
SAXON HARBOR     2200   17     250/  6/  8 1023.7R
$$

LMZ867-665-643>646-290000-
LAKE MICHIGAN

STATION/POSITION TIME  TEMP    WIND        PRES    WAVE
                       AIR SEA DIR/SP/G            HT/PER
                 (UTC) (F)     (DEG/KT/KT) (MB)    (FT/S)
CHAMBERS ISLAND  2200   25     290/  5/ 11 1021.0R
NORTHPORT PIER   2206   24     300/  8/ 17 1020.7R
SISTER BAY       2128          340/ 15/ 17   N/A
ALGOMA LAKESHORE 2100          310/ 11/ 14   N/A
KEWAUNEE LAKESHO 2200   26     300/  5/ 10 1020.2R
SHEBOYGAN LAKESH 2200   29 37  300/  6/  7 1022.4R
PORT WASHINGTON  2100   32     260/  7/ 10 1021.7R
MILWAUKEE LAKESH 2200   32     280/  7/  9   N/A
KENOSHA   LAKESH 2200   34     300/  6/  9 1021.3R
$$

TC  - TEMPERATURE IN CELSIUS
VSB - VISIBILITY IN STATUTE MILES
WCI - WIND CHILL INDEX
HX  - HEAT INDEX



USA.gov is the U.S. government's official web portal to all federal, state and local government web resources and services.